This demonstration page uses our WeatherBlox Daily Observations layout. Learn more.

Left ArrowRight Arrow

40.92945, -100.16068

Hourly Observations for October 31, 2021

Temp ( °F °C ) Dew Point ( °F °C ) Humidity (%) Winds ( mph kmh ) Pressure ( in mb ) Visibility ( mi km ) Precip ( " mm )
12:15 am 00:15 Partly Cloudy 40 4.4 35 1.4 81 81 NNW 9 15 30.22 1024 10 16 N/A
12:35 am 00:35 Mostly Cloudy 41 4.9 35 1.6 79 79 NNW 9 15 30.22 1023 10 16 N/A
12:55 am 00:55 Mostly Cloudy 40 4.5 35 1.4 81 81 N 8 13 30.23 1024 10 16 N/A
1:15 am 01:15 Cloudy 41 5.2 35 1.6 78 78 N 12 19 30.23 1024 10 16 N/A
1:35 am 01:35 Cloudy 42 5.7 35 1.5 75 75 N 14 22 30.22 1023 10 16 N/A
1:55 am 01:55 Cloudy 43 6 34 1.3 72 72 N 14 22 30.22 1023 10 16 N/A
2:15 am 02:15 Cloudy 43 6 34 1.2 72 72 N 13 20 30.23 1024 10 16 N/A
2:35 am 02:35 Cloudy 43 6 34 1.3 72 72 N 13 20 30.24 1024 10 16 N/A
2:55 am 02:55 Cloudy 43 6 34 1.3 72 72 N 10 17 30.24 1024 10 16 N/A
3:15 am 03:15 Cloudy 43 6 34 1.1 71 71 N 14 22 30.23 1024 10 16 N/A
3:35 am 03:35 Cloudy 43 6 34 1 71 71 N 15 24 30.23 1024 10 16 N/A
3:55 am 03:55 Cloudy 43 6 34 1 71 71 NNE 17 28 30.22 1023 10 16 N/A
4:15 am 04:15 Cloudy 42 5.8 34 0.9 71 71 N 8 13 30.24 1024 10 16 N/A
4:35 am 04:35 Cloudy 42 5.8 33 0.7 70 70 N 13 20 30.24 1024 10 16 N/A
4:55 am 04:55 Cloudy 42 5.8 33 0.6 70 70 N 12 19 30.24 1024 10 16 N/A
5:15 am 05:15 Cloudy 42 5.6 33 0.3 69 69 N 9 15 30.25 1024 10 16 N/A
5:35 am 05:35 Cloudy 42 5.6 33 0.3 69 69 N 7 11 30.26 1025 10 16 N/A
5:55 am 05:55 Cloudy 42 5.6 32 0.2 69 69 N 8 13 30.28 1025 10 16 N/A
6:15 am 06:15 Cloudy 42 5.6 33 0.3 69 69 NNW 6 9 30.29 1026 10 16 N/A
6:35 am 06:35 Cloudy 42 5.8 32 0.2 68 68 N 6 9 30.30 1026 10 16 N/A
6:55 am 06:55 Cloudy 42 5.7 33 0.4 69 69 N 7 11 30.31 1026 10 16 N/A
7:15 am 07:15 Cloudy 43 5.9 32 0.2 67 67 N 8 13 30.31 1026 10 16 N/A
7:35 am 07:35 Cloudy 42 5.8 32 0.2 68 68 N 8 13 30.31 1026 10 16 N/A
7:55 am 07:55 Cloudy 42 5.6 33 0.3 69 69 N 8 13 30.32 1027 10 16 N/A
8:15 am 08:15 Cloudy 42 5.6 33 0.5 70 70 N 8 13 30.32 1027 10 16 N/A
8:35 am 08:35 Cloudy 42 5.5 33 0.5 71 71 N 9 15 30.33 1027 10 16 N/A
8:55 am 08:55 Cloudy 42 5.5 33 0.6 71 71 N 8 13 30.34 1028 10 16 N/A
9:15 am 09:15 Cloudy 42 5.5 33 0.7 72 72 N 6 9 30.35 1028 10 16 N/A
9:35 am 09:35 Cloudy 42 5.6 33 0.8 72 72 N 8 13 30.36 1028 10 16 N/A
9:55 am 09:55 Cloudy 42 5.6 33 0.5 70 70 N 10 17 30.37 1029 10 16 N/A
10:15 am 10:15 Cloudy 42 5.5 32 undefined 68 68 N 14 22 30.38 1029 10 16 N/A
10:35 am 10:35 Cloudy 41 5.1 31 -0.5 67 67 N 15 24 30.40 1029 10 16 N/A
10:55 am 10:55 Cloudy 41 5 30 -1 66 66 N 12 19 30.40 1029 10 16 N/A
11:15 am 11:15 Cloudy 41 5 29 -1.8 62 62 NNE 12 19 30.41 1030 10 16 N/A
11:35 am 11:35 Cloudy 41 5 29 -1.5 63 63 NNE 9 15 30.42 1030 10 16 N/A
11:55 am 11:55 Cloudy 41 5.2 29 -1.8 61 61 N 10 17 30.42 1030 10 16 N/A
12:15 pm 12:15 Cloudy 42 5.7 28 -2 58 58 NNE 9 15 30.41 1030 10 16 N/A
12:35 pm 12:35 Cloudy 42 5.7 27 -2.6 56 56 NNE 10 17 30.41 1030 10 16 N/A
12:55 pm 12:55 Cloudy 42 5.6 26 -3.1 54 54 NE 8 13 30.41 1030 10 16 N/A
1:15 pm 13:15 Cloudy 43 6.1 26 -3.2 52 52 N 9 15 30.41 1030 10 16 N/A
1:35 pm 13:35 Cloudy 42 5.6 25 -3.8 51 51 NNE 7 11 30.40 1030 10 16 N/A
1:55 pm 13:55 Cloudy 42 5.8 25 -3.7 51 51 NNE 10 17 30.39 1029 10 16 N/A
2:15 pm 14:15 Cloudy 43 5.9 26 -3.3 52 52 NNE 6 9 30.38 1029 10 16 N/A
2:35 pm 14:35 Cloudy 43 6 26 -3.4 51 51 N 7 11 30.38 1029 10 16 N/A
2:55 pm 14:55 Cloudy 43 6.1 26 -3.4 51 51 N 7 11 30.38 1029 10 16 N/A
3:15 pm 15:15 Cloudy 43 6 26 -3.5 51 51 N 7 11 30.37 1028 10 16 N/A
3:35 pm 15:35 Cloudy 43 6.1 26 -3.5 51 51 N 8 13 30.37 1028 10 16 N/A
3:55 pm 15:55 Cloudy 43 6.2 26 -3.3 51 51 N 5 7 30.37 1028 10 16 N/A
4:15 pm 16:15 Cloudy 43 6.3 26 -3.1 51 51 NE 8 13 30.37 1028 10 16 N/A
4:35 pm 16:35 Cloudy 43 6.3 26 -3.3 51 51 NE 5 7 30.37 1028 10 16 N/A
4:55 pm 16:55 Cloudy 43 6.2 26 -3.6 50 50 N 7 11 30.37 1028 10 16 N/A
5:15 pm 17:15 Cloudy 43 6.2 26 -3.6 50 50 NNE 6 9 30.37 1028 10 16 N/A
5:35 pm 17:35 Cloudy 43 6 26 -3.5 51 51 NNE 5 7 30.37 1028 10 16 N/A
5:55 pm 17:55 Cloudy 42 5.8 26 -3.4 52 52 NNE 5 7 30.37 1028 10 16 N/A
6:15 pm 18:15 Cloudy 42 5.8 26 -3.1 53 53 NNE 6 9 30.37 1028 10 16 N/A
6:35 pm 18:35 Cloudy 42 5.5 27 -3 55 55 N 6 9 30.37 1029 10 16 N/A
6:55 pm 18:55 Cloudy 41 5.2 28 -2.5 58 58 N 6 9 30.37 1028 10 16 N/A
7:15 pm 19:15 Cloudy 41 5.2 28 -2.5 58 58 N 6 9 30.38 1029 10 16 N/A
7:35 pm 19:35 Cloudy 41 5 28 -2.1 60 60 N 8 13 30.39 1029 10 16 N/A
7:55 pm 19:55 Cloudy 40 4.7 29 -1.9 63 63 N 6 9 30.39 1029 10 16 N/A
8:15 pm 20:15 Cloudy 40 4.5 29 -1.6 65 65 NNE 5 7 30.39 1029 10 16 N/A
8:35 pm 20:35 Cloudy 40 4.5 30 -1.3 66 66 N 5 7 30.39 1029 10 16 N/A
8:55 pm 20:55 Cloudy 39 3.7 31 -0.5 74 74 N 7 11 30.40 1030 10 16 N/A
9:15 pm 21:15 Cloudy 38 3.6 32 -0.2 76 76 N 7 11 30.40 1030 10 16 N/A
9:35 pm 21:35 Cloudy 38 3.3 32 undefined 79 79 N 10 17 30.42 1030 10 16 N/A
9:55 pm 21:55 Cloudy 37 3 32 undefined 81 81 NNE 9 15 30.42 1030 10 16 N/A
10:15 pm 22:15 Cloudy 37 2.6 32 undefined 83 83 N 6 9 30.42 1030 10 16 N/A
10:35 pm 22:35 Cloudy with Drizzle 37 2.6 32 0.1 84 84 NNE 7 11 30.43 1031 10 16 N/A
10:55 pm 22:55 Cloudy 36 2.3 33 0.5 88 88 NNE 6 9 30.44 1031 10 16 N/A
11:15 pm 23:15 Cloudy with Drizzle 36 2.1 33 0.6 90 90 NNE 6 9 30.44 1031 10 16 N/A
11:35 pm 23:35 Cloudy with Light Snow 35 1.4 33 0.3 92 92 NNE 6 9 30.44 1031 5 8 N/A
11:55 pm 23:55 Cloudy with Light Snow 33 0.8 32 0.1 95 95 NE 5 7 30.45 1031 4 6 N/A

Powered by AerisWeather